This is the latest recevied weather packets stored in our database for station/object KC8ZBC. If no packets are shown the sender has not sent any weather packets the latest 10 day(s).
| Time | Temp. | Humidity | Pressure | Rain* | Wind** | Luminosity | Snow |
|---|---|---|---|---|---|---|---|
| 1777643766 | 5.56° C | 80% | 988.9 hPa | 0 mm | - | 105 W/m² | - |
| 1777643464 | 5.56° C | 80% | 988.9 hPa | 0 mm | - | 185 W/m² | - |
| 1777643160 | 6.11° C | 80% | 988.9 hPa | 0 mm | - | 235 W/m² | - |
| 1777642856 | 6.11° C | 79% | 988.9 hPa | 0 mm | - | 391 W/m² | - |
| 1777642554 | 5.56° C | 81% | 988.9 hPa | 0 mm | - | 363 W/m² | - |
| 1777642250 | 5° C | 81% | 988.9 hPa | 0 mm | - | 213 W/m² | - |
| 1777641947 | 5° C | 82% | 989 hPa | 0 mm | - | 146 W/m² | - |
| 1777641643 | 4.44° C | 84% | 988.8 hPa | 0 mm | - | 131 W/m² | - |
| 1777641338 | 4.44° C | 84% | 988.9 hPa | 0 mm | - | 111 W/m² | - |
| 1777641034 | 4.44° C | 84% | 988.8 hPa | 0 mm | - | 94 W/m² | - |
| 1777640730 | 4.44° C | 84% | 988.9 hPa | 0 mm | - | 92 W/m² | - |
| 1777640427 | 4.44° C | 83% | 988.8 hPa | 0 mm | - | 86 W/m² | - |
| 1777640124 | 3.89° C | 83% | 988.8 hPa | 0 mm | - | 79 W/m² | - |
| 1777639821 | 3.89° C | 84% | 989 hPa | 0 mm | - | 69 W/m² | - |
| 1777639518 | 3.89° C | 83% | 989 hPa | 0 mm | - | 60 W/m² | - |
| 1777639215 | 3.89° C | 83% | 988.6 hPa | 0 mm | - | 69 W/m² | - |
| 1777638911 | 3.89° C | 83% | 988.8 hPa | 0 mm | - | 78 W/m² | - |
| 1777638606 | 3.89° C | 84% | 988.8 hPa | 0 mm | - | 91 W/m² | - |
| 1777638304 | 3.89° C | 85% | 988.8 hPa | 0 mm | - | 64 W/m² | - |
| 1777637999 | 3.33° C | 86% | 988.7 hPa | 0 mm | - | 56 W/m² | - |
| 1777637696 | 3.33° C | 86% | 988.8 hPa | 0 mm | - | 39 W/m² | - |
| 1777637393 | 3.33° C | 88% | 988.9 hPa | 0 mm | - | 31 W/m² | - |
| 1777637089 | 3.33° C | 87% | 988.8 hPa | 0 mm | - | 18 W/m² | - |
| 1777636785 | 3.33° C | 88% | 988.7 hPa | 0 mm | - | 16 W/m² | - |
| 1777636482 | 3.33° C | 88% | 988.8 hPa | 0 mm | - | 17 W/m² | - |
* Rain latest hour (hover to see other rain measurements)
** Current wind speed in m/s (hover to see current wind gust speed)